{"data":{"norad_id":59844,"intl_designator":"2024-097K","name":"STARLINK-31851","alt_names":[],"object_type":"PAYLOAD","status":"ACTIVE","operator":null,"country":"US","launch_date":"2024-05-23","launch_site_code":"AFETR","launch_vehicle":null,"mission":null,"orbit_class":"UNKNOWN","rcs_meters":null,"size_class":null,"mass_kg":null,"dimensions":null,"purposes":["comms"],"wikipedia_slug":null,"has_3d_model":false,"image_url":null,"decayed_at":null,"tle_current":{"epoch":"2026-05-25T03:47:54.691296Z","epoch_age_seconds":61336,"freshness":"FRESH","line1":"1 59844U 24097K   26145.15827189  .00000403  00000+0  24170-4 0  9995","line2":"2 59844  43.0024 202.3418 0001606 268.9798  91.0870 15.27576432113616","mean_motion":15.27576432,"eccentricity":0.0001606,"inclination_deg":43.0024,"raan_deg":202.3418,"arg_perigee_deg":268.9798,"mean_anomaly_deg":91.087,"bstar":2.417e-5,"rev_number":11361,"period_min":94.266968894948,"perigee_km":481.95787173317,"apogee_km":484.16168813889,"semimajor_km":6861.196779936,"source":"CELESTRAK","updated_at":"2026-05-25T13:38:19.086941Z"}}}